Find Anik A2

NORAD ID: 6437 Int'l Des: 1973-023 Owner: TCAN Country: CA operational
HEOCIRCULAR

Live-Position

3D-Globus wird geladen...

Über Anik A2

Beschreibung wird geladen...

Nächste Überflüge

Passes for default location (London). Set your location on the main map for personalized predictions.

Höhenverlauf

Loading altitude history...

Zweizeiliger Elementsatz

1 06437U 73023A 26106.96332123 -.00000340 00000-0 00000-0 0 9997
2 06437 7.0733 296.3853 0011973 73.8423 301.5220 0.99798934 46546
Epoch: 16. Apr. 2026 • Age: 14 hours

Aktueller Status

Höhe 35963.6 km
Geschwindigkeit 3.07 km/s
Subsatellitenpunkt -4.83°S, 118.72°E
Typ other

Most Searched